Location: Unspecified
(0.0000°N, 0.0000°E)
Time: 18:09:19
(UTC+00:00)

A-11 Canister half - All Passes

Search period start: 20 September 2024 00:00
Search period end: 30 September 2024 00:00
Orbit: 1515 x 1684 km, 47.2° (Epoch: 19 September)

Date Brightness Start Highest point End Pass type
(mag) Time Alt. Az. Time Alt. Az. Time Alt. Az.
20 Sep - 01:23:51 10° NNW 01:32:49 51° NE 01:42:04 10° ESE visible
20 Sep - 03:29:17 10° WNW 03:37:35 34° SW 03:46:14 10° SSE visible
20 Sep - 12:12:06 10° S 12:19:22 22° SE 12:26:28 10° E daylight
20 Sep - 14:14:28 10° SW 14:24:29 79° NW 14:34:08 10° NE daylight
20 Sep - 16:24:54 10° WNW 16:29:37 14° NW 16:34:16 10° NNW daylight
21 Sep - 01:01:02 10° NNW 01:09:50 46° NE 01:18:53 10° ESE visible
21 Sep - 03:06:05 10° WNW 03:14:35 38° SW 03:23:24 10° SSE visible
21 Sep - 11:49:27 10° S 11:56:18 20° SE 12:02:58 10° E daylight
21 Sep - 13:51:25 10° SW 14:01:29 85° NW 14:11:11 10° NE daylight
21 Sep - 16:01:04 10° W 16:06:33 16° NW 16:11:57 10° NNW daylight
22 Sep - 00:38:13 10° NNW 00:46:51 42° NE 00:55:42 10° ESE night (unlit)
22 Sep - 02:42:54 10° WNW 02:51:33 41° SW 03:00:33 10° SSE visible
22 Sep - 11:26:52 10° S 11:33:13 18° SE 11:39:25 10° E daylight
22 Sep - 13:28:23 10° SW 13:38:29 89° SE 13:48:14 10° NE daylight
22 Sep - 15:37:21 10° W 15:43:29 18° NW 15:49:31 10° N daylight
23 Sep - 00:15:26 10° NNW 00:23:52 38° NE 00:32:29 10° ESE night (unlit)
23 Sep - 02:19:45 10° WNW 02:28:33 45° SW 02:37:42 10° SSE visible
23 Sep - 11:04:21 10° S 11:10:07 16° SE 11:15:46 10° E daylight
23 Sep - 13:05:22 10° SW 13:15:29 83° SE 13:25:14 10° NE daylight
23 Sep - 15:13:45 10° W 15:20:26 20° NW 15:27:01 10° N daylight
23 Sep - 23:52:40 10° NNW 00:00:52 35° NE 00:09:14 10° ESE night (unlit)
24 Sep - 01:56:38 10° WNW 02:05:33 49° SW 02:14:49 10° SSE visible
24 Sep - 10:41:56 10° SSE 10:47:01 15° SE 10:52:00 10° ESE daylight
24 Sep - 12:42:21 10° SW 12:52:29 77° SE 13:02:14 10° NE daylight
24 Sep - 14:50:12 10° W 14:57:23 22° NW 15:04:26 10° N daylight
24 Sep - 23:29:55 10° N 23:37:52 32° NE 23:45:58 10° ESE night (unlit)
25 Sep - 01:33:33 10° NW 01:42:34 53° SW 01:51:55 10° SSE visible
25 Sep - 10:19:41 10° SSE 10:23:53 13° SE 10:28:03 10° ESE daylight
25 Sep - 12:19:23 10° SSW 12:29:28 71° SE 12:39:12 10° NE daylight
25 Sep - 14:26:44 10° W 14:34:20 25° NW 14:41:48 10° N daylight
25 Sep - 23:07:13 10° N 23:14:52 29° NE 23:22:39 10° ESE night (unlit)
26 Sep - 01:10:28 10° NW 01:19:34 58° SW 01:29:00 10° SSE visible
26 Sep - 09:57:41 10° SSE 10:00:46 12° SE 10:03:49 10° ESE daylight
26 Sep - 11:56:25 10° SSW 12:06:27 65° SE 12:16:10 10° NE daylight
26 Sep - 14:03:18 10° WSW 14:11:19 27° NW 14:19:08 10° N daylight
26 Sep - 22:44:32 10° N 22:51:53 26° NE 22:59:18 10° ESE night (unlit)
27 Sep - 00:47:25 10° NW 00:56:35 64° SW 01:06:05 10° SSE night (unlit)
27 Sep - 03:00:45 10° SW 03:02:11 10° SW 03:03:38 10° SSW visible
27 Sep - 09:36:47 10° SE 09:37:38 10° SE 09:38:28 10° SE daylight
27 Sep - 11:33:28 10° SSW 11:43:26 60° SE 11:53:06 10° NE daylight
27 Sep - 13:39:56 10° WSW 13:48:16 30° NW 13:56:26 10° N daylight
27 Sep - 22:21:53 10° N 22:28:51 24° NE 22:35:54 10° E night (unlit)
28 Sep - 00:24:23 10° NW 00:33:36 69° SW 00:43:08 10° SSE night (unlit)
28 Sep - 02:35:57 10° WSW 02:39:04 12° SW 02:42:13 10° SSW visible
28 Sep - 11:10:32 10° SSW 11:20:24 55° SE 11:30:00 10° NE daylight
28 Sep - 13:16:35 10° WSW 13:25:14 33° NW 13:33:42 10° N daylight
28 Sep - 21:59:16 10° N 22:05:50 21° NE 22:12:27 10° E night (unlit)
29 Sep - 00:01:22 10° NW 00:10:38 75° SW 00:20:10 10° SE night (unlit)
29 Sep - 02:11:52 10° WSW 02:15:58 13° SW 02:20:08 10° SSW visible
29 Sep - 10:47:37 10° SSW 10:57:23 51° SE 11:06:52 10° ENE daylight
29 Sep - 12:53:17 10° WSW 13:02:13 36° NW 13:10:56 10° NNE daylight
29 Sep - 21:36:43 10° N 21:42:49 19° NE 21:48:57 10° E night (unlit)
29 Sep - 23:38:23 10° NW 23:47:39 82° SW 23:57:12 10° SE night (unlit)
